DW4127 Weather Reports


Display with metric or nautical units.
time (UTC)temp
F
wind
direction
speed
MPH
gust
MPH
rain 1hr
in
rain 24hr
in
rain mn
in
humidity
%
barometer
mb
20260509064548 71 225 2.0 5.0 0.00 0.01 0.00 85 1009.2
20260509063628 71 225 3.0 5.0 0.00 0.01 0.00 85 1009.2
20260509062608 71 203 2.0 4.0 0.00 0.01 0.00 85 1009.4
20260509061548 71 180 2.0 4.0 0.00 0.01 0.00 85 1009.3
20260509060548 71 203 1.0 3.0 0.00 0.01 0.00 84 1009.8
20260509055548 71 0.0 1.0 0.00 0.01 0.00 83 1009.8
20260509054608 72 203 1.0 3.0 0.00 0.01 0.00 83 1010.2
20260509053608 72 0.0 0.0 0.00 0.01 0.00 82 1010.0
20260509052548 72 0.0 2.0 0.00 0.01 0.00 82 1010.7
20260509051548 72 203 2.0 3.0 0.00 0.01 0.00 82 1010.3
20260509050548 72 203 2.0 4.0 0.00 0.01 0.00 82 1009.3
20260509045549 72 225 1.0 4.0 0.00 0.01 0.01 81 1009.3
20260509044549 72 203 3.0 10.0 0.00 0.01 0.01 80 1008.7
20260509043549 72 180 2.0 5.0 0.00 0.01 0.01 80 1009.2
20260509042549 72 158 3.0 7.0 0.00 0.01 0.01 79 1008.9
20260509041549 73 113 2.0 6.0 0.00 0.01 0.01 78 1009.4
20260509040609 73 113 3.0 6.0 0.00 0.01 0.01 78 1009.5
20260509035549 73 0.0 0.0 0.00 0.01 0.01 78 1010.1
20260509034609 73 0.0 0.0 0.00 0.01 0.01 78 1009.9
20260509033549 73 113 1.0 3.0 0.00 0.01 0.01 78 1009.6
20260509032549 73 0.0 1.0 0.00 0.01 0.01 78 1009.3
20260509031549 73 113 2.0 6.0 0.00 0.01 0.01 78 1009.2
20260509030549 73 113 3.0 7.0 0.00 0.01 0.01 78 1009.3
20260509025549 73 135 2.0 5.0 0.00 0.01 0.01 78 1008.9
20260509024549 73 135 3.0 7.0 0.00 0.01 0.01 78 1008.7
20260509023549 73 135 1.0 3.0 0.00 0.01 0.01 78 1008.5
20260509022549 73 113 2.0 6.0 0.00 0.01 0.01 77 1008.2
20260509021549 73 135 3.0 5.0 0.00 0.01 0.01 77 1008.1
20260509020549 73 135 3.0 7.0 0.00 0.01 0.01 77 1008.2
20260509015549 73 180 3.0 8.0 0.00 0.01 0.01 76 1008.0
20260509014609 73 158 3.0 5.0 0.00 0.01 0.01 76 1008.1
20260509013549 73 180 2.0 7.0 0.00 0.01 0.01 76 1008.1
20260509012609 73 158 2.0 4.0 0.00 0.01 0.01 76 1007.9
20260509011609 73 158 3.0 7.0 0.00 0.01 0.01 75 1007.9
20260509010549 73 135 4.0 9.0 0.00 0.01 0.01 75 1007.7
20260509005549 73 158 2.0 5.0 0.00 0.01 0.01 75 1007.5
20260509004629 74 158 2.0 7.0 0.00 0.01 0.01 75 1007.5
20260509003549 74 158 4.0 9.0 0.00 0.01 0.01 74 1007.3
20260509002549 74 158 4.0 9.0 0.00 0.01 0.01 73 1007.3
20260509001549 74 180 3.0 8.0 0.00 0.01 0.01 73 1007.4
20260509000549 75 135 3.0 7.0 0.00 0.01 0.01 73 1007.5
20260508235549 74 135 3.0 8.0 0.00 0.01 0.01 72 1007.6
20260508234549 75 113 3.0 6.0 0.00 0.01 0.01 72 1007.7
20260508233549 75 158 4.0 8.0 0.00 0.01 0.01 71 1007.8
20260508232549 75 113 3.0 7.0 0.00 0.01 0.01 71 1007.9
20260508231609 75 135 4.0 8.0 0.00 0.01 0.01 70 1008.0
20260508230549 76 158 5.0 10.0 0.00 0.01 0.01 70 1007.9
20260508225609 75 180 4.0 11.0 0.00 0.01 0.01 70 1008.1
20260508224549 75 180 3.0 10.0 0.00 0.01 0.01 70 1008.0
20260508223549 75 158 5.0 9.0 0.00 0.01 0.01 69 1007.9
20260508222549 76 203 4.0 10.0 0.00 0.01 0.01 69 1007.9
20260508221549 76 180 5.0 9.0 0.00 0.01 0.01 69 1007.9
20260508220549 78 158 5.0 9.0 0.00 0.01 0.01 67 1007.8
20260508215609 77 180 4.0 8.0 0.00 0.01 0.01 70 1007.8
20260508214549 77 158 3.0 7.0 0.00 0.01 0.01 68 1007.9
20260508213549 76 180 4.0 10.0 0.00 0.01 0.01 70 1007.8
20260508212549 76 158 4.0 8.0 0.00 0.01 0.01 69 1007.7
20260508211549 76 135 4.0 9.0 0.00 0.01 0.01 71 1008.1
20260508210549 73 135 2.0 7.0 0.00 0.01 0.01 74 1008.6
20260508205549 73 203 2.0 6.0 0.00 0.01 0.01 75 1009.1
20260508204549 74 203 2.0 6.0 0.00 0.01 0.01 72 1009.4
20260508203549 74 225 4.0 10.0 0.00 0.01 0.01 69 1009.8
20260508202549 74 203 2.0 5.0 0.00 0.01 0.01 69 1009.9
20260508201549 75 203 3.0 7.0 0.00 0.01 0.01 68 1009.9
20260508200549 76 225 2.0 6.0 0.00 0.01 0.01 68 1009.9
20260508195549 76 158 4.0 8.0 0.00 0.01 0.01 67 1009.9
20260508194548 77 180 4.0 7.0 0.00 0.01 0.01 66 1009.9
20260508193549 77 203 4.0 8.0 0.00 0.01 0.01 66 1009.9
20260508192548 77 158 4.0 8.0 0.00 0.01 0.01 64 1010.0
20260508191548 77 158 5.0 10.0 0.00 0.01 0.01 65 1010.0
20260508190548 77 203 4.0 9.0 0.00 0.01 0.01 65 1010.1
20260508185549 78 180 3.0 9.0 0.00 0.01 0.01 62 1010.3
20260508184548 79 135 4.0 9.0 0.00 0.01 0.01 64 1010.2
20260508183549 78 203 3.0 9.0 0.00 0.01 0.01 63 1010.2
20260508182549 78 203 3.0 8.0 0.00 0.01 0.01 62 1010.6
20260508181548 77 158 3.0 9.0 0.00 0.01 0.01 63 1010.8
20260508180609 77 248 2.0 5.0 0.00 0.01 0.01 63 1010.9
20260508175608 77 158 3.0 8.0 0.00 0.01 0.01 62 1011.1
20260508174549 77 113 4.0 10.0 0.00 0.01 0.01 64 1011.4
20260508173549 76 158 3.0 9.0 0.00 0.01 0.01 64 1011.3
20260508172549 76 113 4.0 10.0 0.00 0.01 0.01 64 1011.4
20260508171608 75 180 3.0 6.0 0.00 0.01 0.01 63 1011.7
20260508170549 73 203 4.0 10.0 0.00 0.01 0.01 65 1011.9
20260508165549 73 158 4.0 10.0 0.00 0.01 0.01 65 1012.3
20260508164549 73 158 3.0 10.0 0.00 0.01 0.01 66 1012.5
20260508163548 73 180 4.0 12.0 0.00 0.01 0.01 65 1012.7
20260508162548 72 203 3.0 12.0 0.00 0.01 0.01 67 1012.8
20260508161548 72 180 4.0 9.0 0.00 0.01 0.01 66 1013.0
20260508160549 72 135 4.0 12.0 0.00 0.01 0.01 67 1013.0
20260508155548 71 135 5.0 10.0 0.00 0.01 0.01 67 1013.0
20260508154548 71 135 5.0 10.0 0.00 0.01 0.01 67 1013.3
20260508153608 69 158 4.0 9.0 0.00 0.01 0.01 69 1013.4
20260508152548 68 135 4.0 8.0 0.00 0.01 0.01 70 1013.4
20260508151548 68 135 4.0 8.0 0.00 0.01 0.01 70 1013.5
20260508150548 67 135 3.0 7.0 0.00 0.01 0.01 70 1013.5
20260508145548 67 113 5.0 8.0 0.00 0.01 0.01 70 1013.3
20260508144548 68 135 5.0 9.0 0.00 0.01 0.01 69 1013.3
20260508143548 67 180 4.0 9.0 0.00 0.01 0.01 71 1013.4
20260508142609 67 135 4.0 10.0 0.00 0.01 0.01 71 1013.8
20260508141548 68 158 4.0 11.0 0.00 0.01 0.01 71 1013.8
20260508140629 67 135 3.0 7.0 0.00 0.01 0.01 73 1013.8
20260508135548 66 158 3.0 7.0 0.00 0.01 0.01 77 1013.8
20260508134549 65 113 3.0 6.0 0.00 0.01 0.01 79 1013.8
20260508133548 64 113 2.0 6.0 0.00 0.01 0.01 80 1013.7
20260508132548 64 113 3.0 7.0 0.00 0.01 0.01 80 1013.7
20260508131548 63 135 2.0 5.0 0.00 0.01 0.01 81 1013.8
20260508130629 63 113 3.0 5.0 0.00 0.01 0.01 81 1013.9
20260508125548 63 135 1.0 3.0 0.00 0.01 0.01 83 1013.9
20260508124548 62 135 2.0 3.0 0.00 0.01 0.01 84 1013.7
20260508123548 62 0.0 0.0 0.00 0.01 0.01 85 1014.3
20260508122548 62 0.0 0.0 0.00 0.01 0.01 85 1013.9
20260508121549 62 0.0 0.0 0.00 0.01 0.01 85 1013.9
20260508120548 62 0.0 1.0 0.00 0.01 0.01 85 1013.8
20260508115548 61 0.0 1.0 0.00 0.01 0.01 85 1014.1
20260508114548 61 135 1.0 3.0 0.00 0.01 0.01 86 1013.9
20260508113548 61 135 1.0 3.0 0.00 0.01 0.01 86 1014.0
20260508112548 61 135 3.0 5.0 0.00 0.01 0.01 86 1013.9
20260508111608 61 113 3.0 5.0 0.00 0.01 0.01 86 1013.9
20260508110548 62 0.0 1.0 0.00 0.01 0.01 86 1014.4
20260508105548 61 113 1.0 2.0 0.00 0.01 0.01 87 1014.7
20260508104548 61 0.0 0.0 0.00 0.01 0.01 88 1014.0
20260508103548 61 0.0 0.0 0.00 0.01 0.01 88 1013.5
20260508102548 61 0.0 0.0 0.00 0.01 0.01 87 1013.1
20260508101608 61 0.0 0.0 0.00 0.01 0.01 87 1013.2
20260508100548 61 135 1.0 3.0 0.00 0.01 0.01 87 1013.0
20260508095548 61 135 1.0 2.0 0.00 0.01 0.01 87 1013.2
20260508094548 61 135 1.0 2.0 0.00 0.01 0.01 87 1013.1
20260508093548 61 0.0 0.0 0.00 0.01 0.01 87 1013.4
20260508092548 62 0.0 0.0 0.00 0.01 0.01 87 1013.5
20260508091549 62 0.0 0.0 0.00 0.01 0.01 87 1013.3
20260508090548 62 0.0 1.0 0.00 0.01 0.01 86 1013.4
20260508085548 62 0.0 2.0 0.01 0.01 0.01 86 1013.6
20260508084608 62 135 1.0 2.0 0.01 0.01 0.01 86 1013.4
20260508083548 61 113 4.0 8.0 0.01 0.01 0.01 87 1013.1
20260508082548 61 0.0 0.0 0.01 0.01 0.01 86 1014.3
20260508081548 61 0.0 0.0 0.01 0.01 0.01 85 1014.4
20260508080608 62 0.0 0.0 0.01 0.01 0.01 84 1014.6
20260508075548 62 0.0 0.0 0.00 0.00 0.00 81 1015.0
20260508074548 62 0.0 0.0 0.00 0.00 0.00 80 1014.9
20260508073548 62 0.0 0.0 0.00 0.00 0.00 80 1014.3
20260508072548 62 0.0 0.0 0.00 0.00 0.00 80 1014.4
20260508071548 62 0.0 0.0 0.00 0.00 0.00 80 1014.6
20260508070548 62 0.0 0.0 0.00 0.00 0.00 80 1014.6
20260508065548 62 0.0 0.0 0.00 0.00 0.00 80 1014.6